Wind_Speed
28 27 26 26 26 25 24 23 23 23 23 22 22 23 23 23 21 23 23 18 19 14 12 10 9 9 9 10 9 7 9 14 14 11 8 8 4 6 10 5 4 4 13 22 20
30 29 28 27 26 25 24 24 24 24 25 24 24 25 26 26 23 23 23 20 18 15 13 11 10 8 9 6 9 11 10 7 3 7 5 3 11 5 2 4 5 4 12 23 22
31 30 29 28 27 26 25 25 25 26 27 27 26 26 26 27 23 24 18 19 17 15 14 13 12 11 9 9 11 10 16 11 7 14 11 7 7 5 4 6 8 14 18 25 17
31 30 29 29 29 28 26 26 26 27 27 26 26 27 26 24 10 19 15 13 13 11 10 11 12 10 9 14 12 16 12 12 6 17 16 14 9 11 10 10 15 20 25 14 10
35 33 32 33 32 30 29 28 27 26 25 24 24 25 23 25 20 25 19 17 11 10 8 7 8 8 13 11 14 16 15 12 15 17 15 17 17 15 12 11 23 23 17 10 24
39 38 37 37 36 34 33 31 31 30 28 26 26 28 27 27 24 25 19 23 21 17 14 13 10 11 16 16 17 9 15 16 16 12 13 15 15 13 9 18 21 9 5 21 26
42 40 41 40 39 37 37 35 36 35 33 31 30 31 31 23 26 25 22 21 23 24 21 16 18 16 9 12 17 18 19 19 20 17 14 15 17 17 13 20 10 6 12 24 31
42 40 43 43 44 42 41 39 38 37 36 34 33 34 36 28 25 25 25 24 23 21 22 23 22 22 20 13 18 17 15 17 14 20 18 14 13 6 20 16 10 9 13 23 37
50 49 47 46 48 46 46 44 40 39 38 37 35 36 37 29 25 24 26 24 24 24 22 22 21 20 14 19 15 17 17 19 15 21 15 12 5 10 12 13 14 12 12 23 37
44 36 42 43 45 45 44 46 40 41 40 40 37 35 33 27 29 20 18 23 25 23 24 25 25 19 20 20 23 20 24 19 21 20 19 15 16 16 15 17 16 19 14 27 36
35 34 31 26 26 27 25 34 36 41 45 40 32 31 25 29 29 22 20 18 25 26 25 22 22 25 26 25 23 22 17 15 13 12 15 17 19 21 22 21 24 20 17 27 28
46 47 46 45 29 27 28 23 31 36 38 42 38 46 39 36 33 29 26 23 23 29 24 19 30 26 21 22 25 25 23 21 20 20 22 19 21 23 23 24 24 17 23 30 27
35 39 39 44 48 44 33 30 31 27 34 44 45 44 36 37 37 24 25 23 23 25 25 30 17 20 25 26 22 22 21 21 23 20 15 17 26 28 28 25 28 32 27 28 22
27 24 27 28 39 27 26 23 26 25 22 37 28 34 39 35 39 33 27 21 22 24 23 28 26 18 17 28 23 26 22 22 23 19 24 18 18 16 10 28 31 29 29 27 22
23 24 26 22 20 26 21 25 24 18 5 8 15 25 21 38 15 19 34 30 27 25 25 31 24 27 29 26 22 25 20 15 14 18 21 22 21 26 25 26 26 28 22 16 15
26 29 26 27 23 22 23 25 22 9 11 7 19 20 22 28 32 13 24 34 30 26 30 29 22 24 25 27 24 20 18 11 14 16 19 23 23 20 20 26 25 21 21 12 16
32 32 32 28 27 22 28 27 17 10 7 13 19 19 21 24 27 25 24 40 35 29 42 31 34 24 20 22 22 22 14 7 10 10 10 17 23 28 6 11 15 26 26 16 15
37 30 32 33 29 26 30 27 15 26 33 15 18 18 26 24 26 33 26 38 42 33 18 35 32 35 24 29 26 29 27 13 9 9 14 13 11 13 17 16 18 22 23 21 14
34 29 35 34 32 29 33 39 24 22 22 30 24 25 26 26 22 30 36 36 41 40 33 24 41 22 33 30 30 22 37 26 23 22 11 15 15 2 16 24 23 23 18 15 14
44 40 36 36 35 35 39 41 38 38 14 7 32 25 28 27 31 30 25 30 34 38 40 27 23 29 30 25 33 29 21 22 20 6 10 16 22 22 28 24 26 19 15 11 11
40 42 34 35 39 41 42 47 48 47 16 21 18 30 25 21 31 27 27 25 27 30 35 35 19 18 27 28 27 24 28 19 18 21 3 7 6 8 15 21 18 16 13 13 11
40 43 36 23 50 50 52 46 49 47 27 19 17 18 23 30 22 30 28 25 18 25 36 38 16 21 34 22 24 21 27 27 20 16 20 22 27 8 3 7 13 18 15 18 15
31 39 48 22 55 42 51 52 42 30 25 30 16 13 15 17 24 24 27 18 19 18 27 33 21 17 22 25 26 25 25 27 32 28 28 20 33 20 18 10 12 13 18 27 15
27 28 40 37 53 48 48 45 34 36 31 24 27 18 15 14 16 9 15 14 14 9 19 24 20 24 16 22 19 18 22 22 26 31 37 37 34 28 22 21 22 13 9 26 24
29 33 37 36 44 60 57 40 36 36 35 20 18 21 23 16 22 20 12 6 6 9 10 18 14 17 20 20 18 15 19 28 28 28 28 35 27 30 27 24 26 26 19 27 34
32 31 26 49 41 52 54 45 34 34 35 37 37 24 17 19 23 25 24 13 15 11 17 8 12 14 20 24 21 20 29 32 32 26 27 26 31 25 23 23 30 32 24 31 33
35 35 35 32 45 39 48 52 41 32 33 33 35 37 19 22 18 24 19 18 18 17 23 17 17 15 26 27 26 28 48 32 34 34 32 35 33 31 30 31 31 25 35 31 30
Wind_Direction
255 258 259 260 263 264 265 266 270 273 275 276 278 279 280 278 279 285 281 290 284 273 269 260 248 230 212 206 234 226 247 241 280 202 154 211 151 222 223 202 255 218 229 235 241
257 258 258 259 260 263 267 269 272 274 276 277 279 280 283 282 282 279 279 280 273 268 261 246 234 238 223 232 228 210 226 292 241 144 165 239 174 211 223 210 236 250 259 257 249
254 258 259 258 258 259 264 270 275 276 278 280 280 278 281 284 285 282 277 270 267 260 256 248 236 224 223 229 232 235 223 303 290 222 173 174 235 252 241 233 259 220 228 252 272
251 254 255 258 258 260 264 270 279 281 282 284 281 279 279 279 279 264 271 268 261 254 238 227 222 209 239 223 232 247 241 251 234 262 239 230 238 234 235 229 239 248 250 264 247
254 255 255 257 256 257 263 269 274 279 287 290 284 281 275 274 273 259 260 259 253 227 205 197 212 233 234 237 232 250 235 260 253 252 247 243 242 249 245 237 244 254 262 228 249
252 254 255 257 258 259 263 268 271 275 280 290 288 285 278 275 271 275 263 256 249 238 228 226 215 234 233 224 232 243 231 231 253 243 257 258 257 258 258 227 249 253 243 253 259
253 253 256 259 258 259 261 264 268 272 277 283 285 284 277 276 274 275 268 259 250 244 236 236 226 231 239 254 243 244 250 252 253 243 248 249 268 258 222 241 246 226 244 261 268
253 254 253 257 263 266 263 264 266 269 273 279 280 282 281 281 277 274 270 256 250 246 241 232 236 234 218 222 248 250 255 252 256 222 220 252 272 251 204 233 231 223 248 271 275
230 238 243 253 258 265 264 263 264 264 268 271 276 276 284 283 277 266 263 259 252 240 236 235 239 240 236 232 250 236 245 236 229 215 227 234 219 215 235 238 223 240 249 258 275
229 229 236 240 246 253 256 260 264 262 264 268 268 272 273 274 273 270 271 248 246 242 239 237 241 232 228 225 223 227 231 246 250 211 206 224 249 235 246 266 244 238 241 252 270
239 243 247 259 245 245 263 257 257 260 264 259 259 256 263 267 266 268 262 252 235 239 234 239 230 223 227 229 234 243 272 260 241 235 233 236 242 251 261 253 244 254 241 255 272
278 287 285 299 264 274 285 288 263 254 259 261 254 253 254 259 264 263 258 239 233 233 231 213 232 233 233 235 239 243 251 251 253 259 263 260 259 265 256 254 237 231 240 266 273
279 286 290 295 295 302 295 293 281 286 276 268 258 254 248 250 255 250 252 240 235 227 215 214 238 245 224 230 236 234 239 249 256 257 257 269 269 267 258 241 228 242 248 264 264
268 271 274 270 282 275 271 267 260 291 292 282 272 258 243 243 251 242 239 229 213 221 212 230 219 241 226 233 235 241 243 253 253 255 259 259 276 268 242 214 226 240 254 255 261
253 256 259 263 264 254 244 237 252 259 272 283 214 227 222 221 231 250 219 215 218 219 213 223 222 233 236 234 233 244 253 246 236 245 266 254 264 260 250 226 219 228 241 251 259
255 253 250 248 244 234 232 233 216 216 237 237 218 231 232 225 232 211 224 218 232 222 232 233 220 237 239 236 235 241 239 233 239 248 254 250 246 270 256 242 200 208 220 240 265
259 249 250 242 243 236 238 230 187 195 238 242 223 220 223 225 233 205 209 206 213 214 231 229 234 233 224 220 223 215 202 214 226 219 245 248 242 242 259 173 195 198 212 267 272
244 242 247 238 230 217 222 203 216 244 229 244 231 222 213 204 222 206 208 210 221 218 241 223 230 221 221 218 212 211 203 199 220 228 252 263 233 246 245 202 177 209 241 277 270
241 243 240 234 224 219 208 203 213 239 247 242 234 222 225 215 214 204 218 220 220 214 220 219 233 230 222 216 206 218 218 226 261 275 286 262 248 266 205 210 209 215 250 256 274
248 243 245 229 228 214 211 213 225 228 225 247 232 228 228 216 207 204 207 232 225 221 210 232 265 223 216 214 218 226 221 215 229 235 233 250 254 267 222 218 216 219 221 259 276
252 252 245 230 228 216 216 215 225 234 244 264 265 245 237 236 219 215 216 231 228 215 214 216 242 204 198 203 205 213 227 216 221 229 264 278 272 241 226 235 204 217 237 271 270
254 253 238 233 219 217 218 221 236 229 216 264 246 249 251 231 234 224 229 220 211 199 204 207 220 219 211 211 216 218 221 221 223 234 236 255 260 262 272 259 235 228 259 257 264
256 259 250 253 219 217 223 230 231 233 232 235 240 228 232 238 246 232 229 215 188 202 200 202 215 219 218 216 219 220 230 230 230 240 243 242 254 258 247 222 231 239 254 261 259
257 268 258 250 228 222 224 223 227 221 229 238 230 231 250 251 232 242 239 214 178 224 198 195 206 216 222 222 222 223 233 241 244 236 246 245 259 255 253 243 220 227 225 263 253
251 251 249 237 228 223 223 224 219 225 222 228 234 227 228 238 244 243 228 219 216 216 217 214 215 223 237 251 257 254 251 252 252 260 242 259 260 261 259 281 277 296 275 270 256
245 237 254 247 242 221 221 218 221 220 219 221 229 223 229 227 236 247 259 264 263 254 241 246 258 274 269 252 265 262 259 255 255 257 266 266 265 264 272 271 277 282 249 256 259
243 242 238 247 248 251 218 217 220 216 223 225 234 227 227 233 244 251 247 255 251 260 254 266 263 263 265 262 272 262 248 251 254 254 257 263 268 274 273 276 280 241 271 266 259
Height
3131 3132 3133 3134 3135 3135 3136 3135 3135 3135 3135 3136 3136 3135 3134 3133 3133 3132 3132 3133 3131 3132 3133 3134 3136 3136 3137 3137 3141 3144 3146 3143 3143 3142 3142 3143 3147 3147 3148 3151 3151 3152 3150 3147 3149
3126 3127 3128 3129 3130 3132 3132 3133 3132 3132 3132 3132 3132 3132 3131 3129 3129 3127 3128 3128 3128 3129 3131 3130 3133 3135 3135 3137 3140 3140 3142 3143 3140 3140 3141 3142 3146 3146 3147 3150 3151 3151 3147 3145 3147
3119 3122 3124 3125 3126 3127 3128 3129 3129 3128 3128 3128 3127 3127 3126 3125 3126 3121 3123 3123 3124 3125 3127 3128 3130 3132 3134 3138 3138 3139 3137 3139 3138 3137 3138 3143 3144 3145 3144 3147 3149 3148 3144 3142 3143
3114 3115 3118 3120 3121 3123 3123 3124 3124 3124 3124 3123 3123 3122 3122 3123 3127 3118 3119 3120 3121 3122 3123 3125 3128 3130 3134 3136 3135 3136 3136 3136 3136 3132 3135 3138 3142 3142 3142 3144 3143 3140 3139 3141 3139
3108 3109 3111 3114 3115 3117 3118 3119 3119 3120 3120 3120 3119 3117 3118 3117 3117 3115 3118 3118 3119 3120 3121 3124 3127 3130 3132 3134 3134 3133 3133 3133 3131 3130 3131 3133 3134 3135 3137 3138 3136 3137 3137 3135 3132
3101 3102 3105 3107 3109 3111 3113 3114 3114 3115 3116 3116 3115 3113 3113 3113 3110 3110 3113 3113 3116 3117 3118 3122 3124 3127 3127 3128 3129 3130 3127 3129 3128 3128 3128 3129 3130 3131 3132 3132 3132 3133 3134 3127 3128
3092 3094 3096 3099 3101 3103 3105 3107 3108 3109 3110 3112 3110 3107 3106 3110 3106 3106 3108 3108 3111 3112 3114 3118 3119 3121 3123 3125 3123 3122 3122 3123 3123 3124 3125 3124 3126 3124 3127 3127 3129 3130 3130 3120 3122
3083 3086 3088 3090 3093 3095 3097 3100 3101 3103 3104 3105 3105 3102 3098 3103 3102 3102 3102 3104 3104 3108 3110 3112 3113 3115 3117 3120 3119 3119 3119 3118 3120 3120 3120 3123 3123 3120 3122 3123 3126 3129 3127 3115 3112
3070 3076 3078 3081 3083 3087 3089 3092 3094 3095 3097 3098 3100 3097 3094 3095 3095 3096 3096 3099 3100 3103 3105 3107 3110 3111 3114 3116 3116 3115 3115 3114 3116 3115 3115 3118 3122 3119 3119 3120 3122 3123 3122 3112 3104
3060 3064 3067 3070 3074 3078 3081 3084 3085 3087 3088 3089 3092 3094 3092 3091 3088 3091 3092 3093 3095 3098 3101 3103 3104 3106 3108 3111 3107 3109 3110 3111 3111 3110 3112 3114 3116 3118 3120 3119 3116 3117 3116 3107 3102
3053 3056 3060 3063 3066 3068 3074 3077 3081 3081 3074 3081 3084 3083 3083 3082 3087 3087 3087 3089 3091 3091 3095 3097 3099 3098 3102 3104 3106 3105 3105 3106 3107 3109 3108 3108 3111 3113 3114 3115 3109 3109 3108 3102 3099
3044 3049 3051 3054 3057 3062 3067 3070 3068 3069 3067 3068 3074 3071 3078 3076 3079 3083 3083 3086 3085 3085 3089 3095 3089 3093 3099 3103 3102 3101 3102 3103 3105 3105 3106 3104 3104 3106 3107 3108 3104 3106 3102 3099 3095
3035 3038 3043 3046 3047 3053 3059 3063 3064 3067 3062 3057 3062 3061 3071 3071 3069 3078 3078 3080 3080 3081 3083 3084 3087 3090 3093 3096 3098 3098 3097 3099 3101 3102 3099 3100 3098 3099 3098 3100 3096 3100 3098 3095 3094
3028 3032 3033 3039 3043 3048 3050 3055 3060 3063 3060 3045 3049 3047 3052 3061 3057 3071 3071 3077 3077 3077 3081 3081 3084 3086 3089 3090 3094 3093 3095 3095 3095 3098 3095 3098 3089 3090 3088 3088 3088 3091 3090 3089 3090
3023 3026 3029 3033 3034 3041 3044 3048 3053 3060 3059 3047 3042 3037 3045 3049 3059 3058 3064 3067 3068 3074 3079 3070 3076 3080 3082 3085 3089 3089 3091 3089 3090 3092 3092 3091 3090 3084 3084 3078 3079 3083 3085 3084 3084
3019 3022 3026 3029 3030 3036 3036 3045 3050 3058 3048 3035 3032 3035 3040 3043 3048 3054 3058 3060 3065 3070 3070 3068 3073 3074 3075 3079 3083 3087 3084 3087 3088 3089 3082 3086 3088 3074 3073 3071 3072 3077 3079 3082 3082
3014 3017 3020 3024 3027 3031 3035 3040 3046 3040 3037 3032 3027 3031 3034 3038 3041 3046 3050 3052 3054 3062 3057 3063 3063 3066 3070 3073 3077 3079 3082 3083 3083 3080 3070 3074 3074 3070 3069 3067 3069 3071 3073 3075 3077
3009 3010 3012 3016 3019 3026 3028 3031 3027 3019 3020 3027 3029 3030 3029 3031 3035 3039 3042 3044 3046 3052 3055 3055 3055 3057 3061 3064 3069 3071 3073 3069 3071 3068 3064 3065 3061 3064 3066 3065 3067 3067 3069 3071 3072
3000 3003 3003 3009 3013 3020 3020 3014 3010 3014 3017 3019 3024 3025 3024 3025 3027 3032 3034 3033 3038 3042 3048 3046 3043 3052 3052 3057 3064 3063 3063 3069 3066 3065 3066 3063 3062 3061 3061 3060 3062 3063 3063 3066 3067
2990 2993 2994 3004 3007 3008 3006 3004 3006 3009 3014 3013 3017 3020 3017 3018 3021 3022 3027 3025 3029 3031 3039 3041 3043 3043 3046 3051 3053 3055 3061 3063 3064 3062 3063 3055 3056 3055 3053 3053 3055 3058 3059 3062 3062
2982 2985 2989 2995 2999 2993 2991 2993 2999 3004 3011 3013 3011 3014 3016 3014 3015 3016 3018 3021 3021 3024 3030 3036 3039 3038 3040 3038 3044 3050 3051 3053 3058 3056 3054 3054 3052 3049 3050 3050 3051 3053 3055 3057 3057
2972 2974 2983 2986 2984 2978 2983 2988 2994 2998 3004 3005 3006 3007 3010 3012 3011 3010 3014 3017 3017 3019 3020 3027 3030 3030 3032 3038 3041 3043 3045 3048 3050 3051 3051 3051 3045 3048 3047 3048 3048 3048 3048 3049 3051
2964 2966 2973 2977 2971 2970 2979 2983 2990 2996 2999 2999 3002 3004 3005 3006 3010 3008 3011 3008 3011 3014 3015 3019 3020 3024 3028 3034 3034 3035 3038 3041 3044 3046 3044 3045 3033 3048 3047 3046 3046 3046 3043 3041 3046
2962 2961 2961 2966 2968 2967 2973 2978 2985 2990 2994 2994 2997 2999 3002 3004 3003 3006 3002 3005 3004 3005 3009 3011 3013 3017 3017 3023 3028 3029 3031 3034 3037 3038 3033 3034 3036 3041 3041 3039 3039 3040 3038 3037 3041
2954 2953 2955 2960 2958 2961 2967 2972 2977 2984 2988 2991 2990 2994 2997 3000 3003 3005 3006 3004 3003 3006 3010 3011 3010 3015 3017 3019 3021 3020 3023 3025 3027 3030 3028 3025 3033 3032 3035 3031 3032 3033 3032 3030 3032
2946 2949 2951 2951 2956 2956 2959 2963 2970 2976 2982 2983 2985 2992 2996 2997 2997 2996 2997 2998 3003 3008 3008 3008 3007 3010 3012 3012 3016 3015 3018 3018 3022 3020 3020 3022 3023 3026 3028 3027 3026 3026 3026 3024 3024
2939 2943 2947 2943 2946 2952 2950 2957 2962 2970 2975 2978 2980 2987 2990 2993 2995 2995 2997 2999 3002 3004 3004 3006 3007 3009 3007 3010 3010 3011 3005 3015 3014 3015 3015 3017 3018 3020 3021 3021 3019 3015 3017 3016 3017